Time,TemperatureF,DewpointF,PressureIn,WindDirection,WindDirectionDegrees,WindSpeedMPH,WindSpeedGustMPH,Humidity,HourlyPrecipIn,Conditions,Clouds,dailyrainin,SoftwareType,DateUTC
2013-03-15 00:01:00,53.6,0.0,0.00,WSW,245,0.0,0.0,0,0.00,,,0.00,WUHU216PEETBRO,2013-03-15 05:01:00,
2013-03-15 00:06:00,53.9,0.0,0.00,WSW,245,0.0,0.0,0,0.00,,,0.00,WUHU216PEETBRO,2013-03-15 05:06:00,
2013-03-15 00:11:00,53.1,0.0,0.00,WSW,245,0.0,0.0,0,0.00,,,0.00,WUHU216PEETBRO,2013-03-15 05:11:00,
2013-03-15 00:16:00,52.9,0.0,0.00,WSW,245,0.0,0.0,0,0.00,,,0.00,WUHU216PEETBRO,2013-03-15 05:16:00,
2013-03-15 00:21:00,52.9,0.0,0.00,WSW,245,0.0,0.0,0,0.00,,,0.00,WUHU216PEETBRO,2013-03-15 05:21:00,
2013-03-15 00:26:00,53.1,0.0,0.00,SW,232,1.0,2.9,0,0.00,,,0.00,WUHU216PEETBRO,2013-03-15 05:26:00,
2013-03-15 00:31:00,52.7,0.0,0.00,SW,232,0.0,2.9,0,0.00,,,0.00,WUHU216PEETBRO,2013-03-15 05:31:00,
2013-03-15 00:36:00,52.3,0.0,0.00,SW,227,1.1,1.8,0,0.00,,,0.00,WUHU216PEETBRO,2013-03-15 05:36:00,
2013-03-15 00:41:00,53.1,0.0,0.00,SW,227,0.0,1.8,0,0.00,,,0.00,WUHU216PEETBRO,2013-03-15 05:41:00,
2013-03-15 00:46:00,52.6,0.0,0.00,SW,227,0.0,1.1,0,0.00,,,0.00,WUHU216PEETBRO,2013-03-15 05:46:00,
2013-03-15 00:51:00,52.1,0.0,0.00,WSW,254,0.0,1.8,0,0.00,,,0.00,WUHU216PEETBRO,2013-03-15 05:51:00,
2013-03-15 00:56:00,52.3,0.0,0.00,WSW,254,0.0,1.8,0,0.00,,,0.00,WUHU216PEETBRO,2013-03-15 05:56:00,
2013-03-15 01:01:00,51.7,0.0,0.00,WSW,254,0.0,0.0,0,0.00,,,0.00,WUHU216PEETBRO,2013-03-15 06:01:00,
2013-03-15 01:06:00,50.9,0.0,0.00,WSW,254,0.0,0.0,0,0.00,,,0.00,WUHU216PEETBRO,2013-03-15 06:06:00,
2013-03-15 01:11:00,52.0,0.0,0.00,West,266,0.0,4.3,0,0.00,,,0.00,WUHU216PEETBRO,2013-03-15 06:11:00,
2013-03-15 01:16:00,52.3,0.0,0.00,West,266,0.0,4.3,0,0.00,,,0.00,WUHU216PEETBRO,2013-03-15 06:16:00,
2013-03-15 01:21:00,51.0,0.0,0.00,West,266,0.0,0.0,0,0.00,,,0.00,WUHU216PEETBRO,2013-03-15 06:21:00,
2013-03-15 01:26:00,50.7,0.0,0.00,West,266,0.0,0.0,0,0.00,,,0.00,WUHU216PEETBRO,2013-03-15 06:26:00,
2013-03-15 01:31:00,51.5,0.0,0.00,West,266,0.0,0.0,0,0.00,,,0.00,WUHU216PEETBRO,2013-03-15 06:31:00,
2013-03-15 01:36:00,51.2,0.0,0.00,West,266,0.0,0.0,0,0.00,,,0.00,WUHU216PEETBRO,2013-03-15 06:36:00,
2013-03-15 01:41:00,50.5,0.0,0.00,WNW,289,2.4,3.5,0,0.00,,,0.00,WUHU216PEETBRO,2013-03-15 06:41:00,
2013-03-15 01:46:00,51.0,0.0,0.00,West,263,0.0,3.5,0,0.00,,,0.00,WUHU216PEETBRO,2013-03-15 06:46:00,
2013-03-15 01:51:00,51.0,0.0,0.00,West,263,0.0,3.4,0,0.00,,,0.00,WUHU216PEETBRO,2013-03-15 06:51:00,
2013-03-15 01:56:00,50.5,0.0,0.00,West,263,0.0,0.0,0,0.00,,,0.00,WUHU216PEETBRO,2013-03-15 06:56:00,
2013-03-15 02:01:00,51.0,0.0,0.00,West,263,0.0,0.0,0,0.00,,,0.00,WUHU216PEETBRO,2013-03-15 07:01:00,
2013-03-15 02:06:00,50.6,0.0,0.00,West,268,0.0,2.7,0,0.00,,,0.00,WUHU216PEETBRO,2013-03-15 07:06:00,
2013-03-15 02:11:00,50.7,0.0,0.00,WSW,255,0.0,3.4,0,0.00,,,0.00,WUHU216PEETBRO,2013-03-15 07:11:00,
2013-03-15 02:16:00,50.7,0.0,0.00,WSW,255,0.0,3.4,0,0.00,,,0.00,WUHU216PEETBRO,2013-03-15 07:16:00,
2013-03-15 02:21:00,50.5,0.0,0.00,WSW,255,0.0,0.0,0,0.00,,,0.00,WUHU216PEETBRO,2013-03-15 07:21:00,
2013-03-15 02:26:00,50.2,0.0,0.00,WSW,255,0.0,0.0,0,0.00,,,0.00,WUHU216PEETBRO,2013-03-15 07:26:00,
2013-03-15 02:31:00,49.5,0.0,0.00,WSW,255,0.0,0.0,0,0.00,,,0.00,WUHU216PEETBRO,2013-03-15 07:31:00,
2013-03-15 02:36:00,48.4,0.0,0.00,WSW,255,0.0,0.0,0,0.00,,,0.00,WUHU216PEETBRO,2013-03-15 07:36:00,
2013-03-15 02:41:00,47.7,0.0,0.00,WSW,255,0.0,0.0,0,0.00,,,0.00,WUHU216PEETBRO,2013-03-15 07:41:00,
2013-03-15 02:47:00,48.6,0.0,0.00,WSW,255,0.0,0.0,0,0.00,,,0.00,WUHU216PEETBRO,2013-03-15 07:47:00,
2013-03-15 02:52:00,47.2,0.0,0.00,WSW,255,0.0,0.0,0,0.00,,,0.00,WUHU216PEETBRO,2013-03-15 07:52:00,
2013-03-15 02:57:00,48.4,0.0,0.00,WSW,255,0.0,0.0,0,0.00,,,0.00,WUHU216PEETBRO,2013-03-15 07:57:00,
2013-03-15 03:02:00,48.7,0.0,0.00,WSW,255,0.0,0.0,0,0.00,,,0.00,WUHU216PEETBRO,2013-03-15 08:02:00,
2013-03-15 03:07:00,49.4,0.0,0.00,WSW,255,0.0,0.0,0,0.00,,,0.00,WUHU216PEETBRO,2013-03-15 08:07:00,
2013-03-15 03:12:00,48.8,0.0,0.00,WSW,255,0.0,0.0,0,0.00,,,0.00,WUHU216PEETBRO,2013-03-15 08:12:00,
2013-03-15 03:17:00,47.1,0.0,0.00,WSW,255,0.0,0.0,0,0.00,,,0.00,WUHU216PEETBRO,2013-03-15 08:17:00,
2013-03-15 03:22:00,47.1,0.0,0.00,WSW,255,0.0,0.0,0,0.00,,,0.00,WUHU216PEETBRO,2013-03-15 08:22:00,
2013-03-15 03:27:00,46.9,0.0,0.00,WSW,255,0.0,0.0,0,0.00,,,0.00,WUHU216PEETBRO,2013-03-15 08:27:00,
2013-03-15 03:32:00,46.1,0.0,0.00,WSW,255,0.0,0.0,0,0.00,,,0.00,WUHU216PEETBRO,2013-03-15 08:32:00,
2013-03-15 03:37:00,45.6,0.0,0.00,WSW,255,0.0,0.0,0,0.00,,,0.00,WUHU216PEETBRO,2013-03-15 08:37:00,
2013-03-15 03:42:00,45.4,0.0,0.00,WSW,255,0.0,0.0,0,0.00,,,0.00,WUHU216PEETBRO,2013-03-15 08:42:00,
2013-03-15 03:47:00,45.6,0.0,0.00,WSW,255,0.0,0.0,0,0.00,,,0.00,WUHU216PEETBRO,2013-03-15 08:47:00,
2013-03-15 03:52:00,47.8,0.0,0.00,WSW,255,0.0,0.0,0,0.00,,,0.00,WUHU216PEETBRO,2013-03-15 08:52:00,
2013-03-15 03:57:00,47.1,0.0,0.00,WSW,255,0.0,0.0,0,0.00,,,0.00,WUHU216PEETBRO,2013-03-15 08:57:00,
2013-03-15 04:02:00,46.1,0.0,0.00,WSW,255,0.0,0.0,0,0.00,,,0.00,WUHU216PEETBRO,2013-03-15 09:02:00,
2013-03-15 04:07:00,45.9,0.0,0.00,WSW,255,0.0,0.0,0,0.00,,,0.00,WUHU216PEETBRO,2013-03-15 09:07:00,
2013-03-15 04:12:00,45.9,0.0,0.00,WSW,255,0.0,0.0,0,0.00,,,0.00,WUHU216PEETBRO,2013-03-15 09:12:00,
2013-03-15 04:17:00,46.9,0.0,0.00,WSW,255,0.0,0.0,0,0.00,,,0.00,WUHU216PEETBRO,2013-03-15 09:17:00,
2013-03-15 04:21:00,45.3,0.0,0.00,WSW,255,0.0,0.0,0,0.00,,,0.00,WUHU216PEETBRO,2013-03-15 09:21:00,
2013-03-15 04:26:00,44.8,0.0,0.00,WSW,255,0.0,0.0,0,0.00,,,0.00,WUHU216PEETBRO,2013-03-15 09:26:00,
2013-03-15 04:31:00,45.3,0.0,0.00,WSW,255,0.0,0.0,0,0.00,,,0.00,WUHU216PEETBRO,2013-03-15 09:31:00,
2013-03-15 04:36:00,45.6,0.0,0.00,WSW,255,0.0,0.0,0,0.00,,,0.00,WUHU216PEETBRO,2013-03-15 09:36:00,
2013-03-15 04:41:00,45.5,0.0,0.00,WSW,255,0.0,0.0,0,0.00,,,0.00,WUHU216PEETBRO,2013-03-15 09:41:00,
2013-03-15 04:46:00,45.4,0.0,0.00,WSW,255,0.0,0.0,0,0.00,,,0.00,WUHU216PEETBRO,2013-03-15 09:46:00,
2013-03-15 04:51:00,45.1,0.0,0.00,WSW,255,0.0,0.0,0,0.00,,,0.00,WUHU216PEETBRO,2013-03-15 09:51:00,
2013-03-15 04:56:00,45.0,0.0,0.00,WSW,255,0.0,0.0,0,0.00,,,0.00,WUHU216PEETBRO,2013-03-15 09:56:00,
2013-03-15 05:01:00,45.6,0.0,0.00,WSW,255,0.0,0.0,0,0.00,,,0.00,WUHU216PEETBRO,2013-03-15 10:01:00,
2013-03-15 05:06:00,45.3,0.0,0.00,WSW,255,0.0,0.0,0,0.00,,,0.00,WUHU216PEETBRO,2013-03-15 10:06:00,
2013-03-15 05:11:00,43.8,0.0,0.00,WSW,255,0.0,0.0,0,0.00,,,0.00,WUHU216PEETBRO,2013-03-15 10:11:00,
2013-03-15 05:16:00,44.8,0.0,0.00,WSW,255,0.0,0.0,0,0.00,,,0.00,WUHU216PEETBRO,2013-03-15 10:16:00,
2013-03-15 05:21:00,45.0,0.0,0.00,WSW,255,0.0,0.0,0,0.00,,,0.00,WUHU216PEETBRO,2013-03-15 10:21:00,
2013-03-15 05:26:00,44.4,0.0,0.00,WSW,255,0.0,0.0,0,0.00,,,0.00,WUHU216PEETBRO,2013-03-15 10:26:00,
2013-03-15 05:31:00,43.8,0.0,0.00,WSW,255,0.0,0.0,0,0.00,,,0.00,WUHU216PEETBRO,2013-03-15 10:31:00,
2013-03-15 05:36:00,43.8,0.0,0.00,WSW,255,0.0,0.0,0,0.00,,,0.00,WUHU216PEETBRO,2013-03-15 10:36:00,
2013-03-15 05:41:00,43.5,0.0,0.00,WSW,255,0.0,0.0,0,0.00,,,0.00,WUHU216PEETBRO,2013-03-15 10:41:00,
2013-03-15 05:46:00,43.3,0.0,0.00,WSW,255,0.0,0.0,0,0.00,,,0.00,WUHU216PEETBRO,2013-03-15 10:46:00,
2013-03-15 05:51:00,43.3,0.0,0.00,WSW,255,0.0,0.0,0,0.00,,,0.00,WUHU216PEETBRO,2013-03-15 10:51:00,
2013-03-15 05:56:00,43.5,0.0,0.00,WSW,255,0.0,0.0,0,0.00,,,0.00,WUHU216PEETBRO,2013-03-15 10:56:00,
2013-03-15 06:01:00,43.0,0.0,0.00,WSW,255,0.0,0.0,0,0.00,,,0.00,WUHU216PEETBRO,2013-03-15 11:01:00,
2013-03-15 06:06:00,42.8,0.0,0.00,WSW,255,0.0,0.0,0,0.00,,,0.00,WUHU216PEETBRO,2013-03-15 11:06:00,
2013-03-15 06:11:00,43.5,0.0,0.00,WSW,255,0.0,0.0,0,0.00,,,0.00,WUHU216PEETBRO,2013-03-15 11:11:00,
2013-03-15 06:16:00,42.8,0.0,0.00,WSW,255,0.0,0.0,0,0.00,,,0.00,WUHU216PEETBRO,2013-03-15 11:16:00,
2013-03-15 06:21:00,44.0,0.0,0.00,WSW,255,0.0,0.0,0,0.00,,,0.00,WUHU216PEETBRO,2013-03-15 11:21:00,
2013-03-15 06:26:00,43.3,0.0,0.00,WSW,255,0.0,0.0,0,0.00,,,0.00,WUHU216PEETBRO,2013-03-15 11:26:00,
2013-03-15 06:31:00,43.3,0.0,0.00,WSW,255,0.0,0.0,0,0.00,,,0.00,WUHU216PEETBRO,2013-03-15 11:31:00,
2013-03-15 06:36:00,44.3,0.0,0.00,WSW,255,0.0,0.0,0,0.00,,,0.00,WUHU216PEETBRO,2013-03-15 11:36:00,
2013-03-15 06:41:00,44.0,0.0,0.00,WSW,255,0.0,0.0,0,0.00,,,0.00,WUHU216PEETBRO,2013-03-15 11:41:00,
2013-03-15 06:46:00,42.9,0.0,0.00,WSW,255,0.0,0.0,0,0.00,,,0.00,WUHU216PEETBRO,2013-03-15 11:46:00,
2013-03-15 06:51:00,42.5,0.0,0.00,WSW,255,0.0,0.0,0,0.00,,,0.00,WUHU216PEETBRO,2013-03-15 11:51:00,
2013-03-15 06:56:00,41.6,0.0,0.00,WSW,255,0.0,0.0,0,0.00,,,0.00,WUHU216PEETBRO,2013-03-15 11:56:00,
2013-03-15 07:01:00,43.0,0.0,0.00,WSW,255,0.0,0.0,0,0.00,,,0.00,WUHU216PEETBRO,2013-03-15 12:01:00,
2013-03-15 07:06:00,43.3,0.0,0.00,WSW,255,0.0,0.0,0,0.00,,,0.00,WUHU216PEETBRO,2013-03-15 12:06:00,
2013-03-15 07:11:00,41.9,0.0,0.00,WSW,255,0.0,0.0,0,0.00,,,0.00,WUHU216PEETBRO,2013-03-15 12:11:00,
2013-03-15 07:16:00,43.3,0.0,0.00,WSW,255,0.0,0.0,0,0.00,,,0.00,WUHU216PEETBRO,2013-03-15 12:16:00,
2013-03-15 07:21:00,44.3,0.0,0.00,WSW,255,0.0,0.0,0,0.00,,,0.00,WUHU216PEETBRO,2013-03-15 12:21:00,
2013-03-15 07:26:00,42.3,0.0,0.00,WSW,255,0.0,0.0,0,0.00,,,0.00,WUHU216PEETBRO,2013-03-15 12:26:00,
2013-03-15 07:31:00,43.0,0.0,0.00,WSW,255,0.0,0.0,0,0.00,,,0.00,WUHU216PEETBRO,2013-03-15 12:31:00,
2013-03-15 07:36:00,44.4,0.0,0.00,WSW,255,0.0,0.0,0,0.00,,,0.00,WUHU216PEETBRO,2013-03-15 12:36:00,
2013-03-15 07:41:00,47.5,0.0,0.00,WSW,255,0.0,0.0,0,0.00,,,0.00,WUHU216PEETBRO,2013-03-15 12:41:00,
2013-03-15 07:46:00,50.5,0.0,0.00,WSW,255,0.0,0.0,0,0.00,,,0.00,WUHU216PEETBRO,2013-03-15 12:46:00,
2013-03-15 07:51:00,51.9,0.0,0.00,WSW,255,0.0,0.0,0,0.00,,,0.00,WUHU216PEETBRO,2013-03-15 12:51:00,
2013-03-15 07:56:00,53.6,0.0,0.00,WSW,255,0.0,0.0,0,0.00,,,0.00,WUHU216PEETBRO,2013-03-15 12:56:00,
2013-03-15 08:01:00,57.0,0.0,0.00,WSW,255,0.0,0.0,0,0.00,,,0.00,WUHU216PEETBRO,2013-03-15 13:01:00,
2013-03-15 08:06:00,58.3,0.0,0.00,WSW,255,0.0,0.0,0,0.00,,,0.00,WUHU216PEETBRO,2013-03-15 13:06:00,
2013-03-15 08:11:00,60.6,0.0,0.00,WSW,255,0.0,0.0,0,0.00,,,0.00,WUHU216PEETBRO,2013-03-15 13:11:00,
2013-03-15 08:16:00,64.2,0.0,0.00,WSW,255,0.0,0.0,0,0.00,,,0.00,WUHU216PEETBRO,2013-03-15 13:16:00,
2013-03-15 08:21:00,63.7,0.0,0.00,WSW,255,0.0,0.0,0,0.00,,,0.00,WUHU216PEETBRO,2013-03-15 13:21:00,
2013-03-15 08:26:00,64.2,0.0,0.00,WSW,255,0.0,0.0,0,0.00,,,0.00,WUHU216PEETBRO,2013-03-15 13:26:00,
2013-03-15 08:31:00,63.4,0.0,0.00,WSW,255,0.0,0.0,0,0.00,,,0.00,WUHU216PEETBRO,2013-03-15 13:31:00,
2013-03-15 08:36:00,63.9,0.0,0.00,WSW,255,0.0,0.0,0,0.00,,,0.00,WUHU216PEETBRO,2013-03-15 13:36:00,
2013-03-15 08:41:00,62.0,0.0,0.00,NW,321,2.0,2.2,0,0.00,,,0.00,WUHU216PEETBRO,2013-03-15 13:41:00,
2013-03-15 08:46:00,62.3,0.0,0.00,SW,215,4.0,4.0,0,0.00,,,0.00,WUHU216PEETBRO,2013-03-15 13:46:00,
2013-03-15 08:51:00,61.7,0.0,0.00,West,271,1.0,5.4,0,0.00,,,0.00,WUHU216PEETBRO,2013-03-15 13:51:00,
2013-03-15 08:56:00,63.1,0.0,0.00,SSW,194,0.0,5.4,0,0.00,,,0.00,WUHU216PEETBRO,2013-03-15 13:56:00,
2013-03-15 09:01:00,64.2,0.0,0.00,West,271,2.5,5.0,0,0.00,,,0.00,WUHU216PEETBRO,2013-03-15 14:01:00,
2013-03-15 09:06:00,64.0,0.0,0.00,WNW,297,3.2,8.3,0,0.00,,,0.00,WUHU216PEETBRO,2013-03-15 14:06:00,
2013-03-15 09:11:00,67.1,0.0,0.00,WSW,239,1.9,8.3,0,0.00,,,0.00,WUHU216PEETBRO,2013-03-15 14:11:00,
2013-03-15 09:16:00,67.7,0.0,0.00,WNW,302,3.1,6.2,0,0.00,,,0.00,WUHU216PEETBRO,2013-03-15 14:16:00,
2013-03-15 09:21:00,67.7,0.0,0.00,WNW,293,1.4,5.3,0,0.00,,,0.00,WUHU216PEETBRO,2013-03-15 14:21:00,
2013-03-15 09:27:00,71.4,0.0,0.00,WNW,297,4.2,5.3,0,0.00,,,0.00,WUHU216PEETBRO,2013-03-15 14:27:00,
2013-03-15 09:32:00,68.2,0.0,0.00,WNW,296,4.3,12.4,0,0.00,,,0.00,WUHU216PEETBRO,2013-03-15 14:32:00,
2013-03-15 09:37:00,69.6,0.0,0.00,WSW,249,5.2,12.4,0,0.00,,,0.00,WUHU216PEETBRO,2013-03-15 14:37:00,
2013-03-15 09:42:00,68.3,0.0,0.00,WSW,242,3.5,8.3,0,0.00,,,0.00,WUHU216PEETBRO,2013-03-15 14:42:00,
2013-03-15 09:47:00,69.0,0.0,0.00,WSW,249,3.3,8.3,0,0.00,,,0.00,WUHU216PEETBRO,2013-03-15 14:47:00,
2013-03-15 09:52:00,71.1,0.0,0.00,NE,38,1.3,9.8,0,0.00,,,0.00,WUHU216PEETBRO,2013-03-15 14:52:00,
2013-03-15 09:57:00,71.4,0.0,0.00,North,2,5.8,9.8,0,0.00,,,0.00,WUHU216PEETBRO,2013-03-15 14:57:00,
2013-03-15 10:02:00,71.4,0.0,0.00,SW,215,6.9,9.1,0,0.00,,,0.00,WUHU216PEETBRO,2013-03-15 15:02:00,
2013-03-15 10:07:00,71.1,0.0,0.00,WNW,283,4.2,8.6,0,0.00,,,0.00,WUHU216PEETBRO,2013-03-15 15:07:00,
2013-03-15 10:12:00,72.7,0.0,0.00,SW,215,4.2,10.7,0,0.00,,,0.00,WUHU216PEETBRO,2013-03-15 15:12:00,
2013-03-15 10:17:00,73.5,0.0,0.00,WSW,249,5.8,10.7,0,0.00,,,0.00,WUHU216PEETBRO,2013-03-15 15:17:00,
2013-03-15 10:22:00,73.7,0.0,0.00,NW,323,3.0,10.4,0,0.00,,,0.00,WUHU216PEETBRO,2013-03-15 15:22:00,
2013-03-15 10:27:00,76.8,0.0,0.00,WNW,296,3.9,9.4,0,0.00,,,0.00,WUHU216PEETBRO,2013-03-15 15:27:00,
2013-03-15 10:32:00,77.1,0.0,0.00,West,273,1.7,7.6,0,0.00,,,0.00,WUHU216PEETBRO,2013-03-15 15:32:00,
2013-03-15 10:37:00,76.5,0.0,0.00,WNW,292,4.7,7.7,0,0.00,,,0.00,WUHU216PEETBRO,2013-03-15 15:37:00,
2013-03-15 10:42:00,75.5,0.0,0.00,West,259,1.1,8.8,0,0.00,,,0.00,WUHU216PEETBRO,2013-03-15 15:42:00,
2013-03-15 10:47:00,74.2,0.0,0.00,NNW,343,4.8,10.2,0,0.00,,,0.00,WUHU216PEETBRO,2013-03-15 15:47:00,
2013-03-15 10:52:00,76.8,0.0,0.00,WNW,287,9.6,10.2,0,0.00,,,0.00,WUHU216PEETBRO,2013-03-15 15:52:00,
2013-03-15 10:57:00,73.9,0.0,0.00,SW,224,7.8,11.1,0,0.00,,,0.00,WUHU216PEETBRO,2013-03-15 15:57:00,
2013-03-15 11:02:00,76.5,0.0,0.00,West,269,2.1,11.1,0,0.00,,,0.00,WUHU216PEETBRO,2013-03-15 16:02:00,
2013-03-15 11:07:00,76.2,0.0,0.00,WSW,238,3.9,11.6,0,0.00,,,0.00,WUHU216PEETBRO,2013-03-15 16:07:00,
2013-03-15 11:12:00,78.9,0.0,0.00,WNW,285,7.0,11.6,0,0.00,,,0.00,WUHU216PEETBRO,2013-03-15 16:12:00,
2013-03-15 11:17:00,79.4,0.0,0.00,West,263,3.7,8.8,0,0.00,,,0.00,WUHU216PEETBRO,2013-03-15 16:17:00,
2013-03-15 11:22:00,79.0,0.0,0.00,West,261,2.9,9.4,0,0.00,,,0.00,WUHU216PEETBRO,2013-03-15 16:22:00,
2013-03-15 11:27:00,82.1,0.0,0.00,WNW,283,4.4,9.4,0,0.00,,,0.00,WUHU216PEETBRO,2013-03-15 16:27:00,
2013-03-15 11:32:00,79.2,0.0,0.00,NW,306,4.2,10.5,0,0.00,,,0.00,WUHU216PEETBRO,2013-03-15 16:32:00,
2013-03-15 11:37:00,78.1,0.0,0.00,WNW,286,4.9,10.5,0,0.00,,,0.00,WUHU216PEETBRO,2013-03-15 16:37:00,
2013-03-15 11:42:00,83.2,0.0,0.00,WSW,238,0.9,9.8,0,0.00,,,0.00,WUHU216PEETBRO,2013-03-15 16:42:00,
2013-03-15 11:47:00,84.5,0.0,0.00,NW,323,2.8,9.1,0,0.00,,,0.00,WUHU216PEETBRO,2013-03-15 16:47:00,
2013-03-15 11:52:00,80.6,0.0,0.00,WNW,296,7.6,8.8,0,0.00,,,0.00,WUHU216PEETBRO,2013-03-15 16:52:00,
2013-03-15 11:57:00,80.4,0.0,0.00,SW,228,3.6,9.8,0,0.00,,,0.00,WUHU216PEETBRO,2013-03-15 16:57:00,
2013-03-15 12:02:00,81.7,0.0,0.00,WNW,296,5.4,12.4,0,0.00,,,0.00,WUHU216PEETBRO,2013-03-15 17:02:00,
2013-03-15 12:07:00,81.7,0.0,0.00,West,280,2.1,12.4,0,0.00,,,0.00,WUHU216PEETBRO,2013-03-15 17:07:00,
2013-03-15 12:12:00,82.5,0.0,0.00,WSW,251,3.7,11.6,0,0.00,,,0.00,WUHU216PEETBRO,2013-03-15 17:12:00,
2013-03-15 12:17:00,85.3,0.0,0.00,WSW,251,4.0,11.6,0,0.00,,,0.00,WUHU216PEETBRO,2013-03-15 17:17:00,
2013-03-15 12:22:00,83.2,0.0,0.00,West,272,4.5,12.2,0,0.00,,,0.00,WUHU216PEETBRO,2013-03-15 17:22:00,
2013-03-15 12:27:00,83.4,0.0,0.00,NNW,328,6.1,12.2,0,0.00,,,0.00,WUHU216PEETBRO,2013-03-15 17:27:00,
2013-03-15 12:32:00,80.2,0.0,0.00,SW,224,10.7,13.7,0,0.00,,,0.00,WUHU216PEETBRO,2013-03-15 17:32:00,
2013-03-15 12:37:00,80.6,0.0,0.00,West,261,8.5,16.1,0,0.00,,,0.00,WUHU216PEETBRO,2013-03-15 17:37:00,
2013-03-15 12:42:00,83.2,0.0,0.00,West,261,2.5,16.1,0,0.00,,,0.00,WUHU216PEETBRO,2013-03-15 17:42:00,
2013-03-15 12:47:00,83.8,0.0,0.00,WNW,303,2.7,10.4,0,0.00,,,0.00,WUHU216PEETBRO,2013-03-15 17:47:00,
2013-03-15 12:52:00,82.8,0.0,0.00,West,273,6.5,10.4,0,0.00,,,0.00,WUHU216PEETBRO,2013-03-15 17:52:00,
2013-03-15 12:57:00,81.4,0.0,0.00,SW,231,7.5,10.3,0,0.00,,,0.00,WUHU216PEETBRO,2013-03-15 17:57:00,
2013-03-15 13:02:00,80.6,0.0,0.00,WSW,245,10.1,13.4,0,0.00,,,0.00,WUHU216PEETBRO,2013-03-15 18:02:00,
2013-03-15 13:07:00,83.8,0.0,0.00,SSW,203,1.2,15.9,0,0.00,,,0.00,WUHU216PEETBRO,2013-03-15 18:07:00,
2013-03-15 13:12:00,81.4,0.0,0.00,WSW,247,6.3,15.1,0,0.00,,,0.00,WUHU216PEETBRO,2013-03-15 18:12:00,
2013-03-15 13:17:00,80.2,0.0,0.00,SW,232,9.3,15.5,0,0.00,,,0.00,WUHU216PEETBRO,2013-03-15 18:17:00,
2013-03-15 13:22:00,82.8,0.0,0.00,SW,220,4.2,15.5,0,0.00,,,0.00,WUHU216PEETBRO,2013-03-15 18:22:00,
2013-03-15 13:27:00,83.8,0.0,0.00,SSW,210,9.8,14.0,0,0.00,,,0.00,WUHU216PEETBRO,2013-03-15 18:27:00,
2013-03-15 13:32:00,81.7,0.0,0.00,South,172,7.9,15.7,0,0.00,,,0.00,WUHU216PEETBRO,2013-03-15 18:32:00,
2013-03-15 13:37:00,83.3,0.0,0.00,WSW,256,8.8,15.7,0,0.00,,,0.00,WUHU216PEETBRO,2013-03-15 18:37:00,
2013-03-15 13:42:00,81.5,0.0,0.00,SSE,165,4.3,14.9,0,0.00,,,0.00,WUHU216PEETBRO,2013-03-15 18:42:00,
2013-03-15 13:47:00,82.4,0.0,0.00,West,276,4.1,14.9,0,0.00,,,0.00,WUHU216PEETBRO,2013-03-15 18:47:00,
2013-03-15 13:52:00,82.4,0.0,0.00,SW,228,3.5,12.4,0,0.00,,,0.00,WUHU216PEETBRO,2013-03-15 18:52:00,
2013-03-15 13:57:00,84.3,0.0,0.00,SW,230,5.1,12.7,0,0.00,,,0.00,WUHU216PEETBRO,2013-03-15 18:57:00,
2013-03-15 14:02:00,81.4,0.0,0.00,SW,220,7.1,14.4,0,0.00,,,0.00,WUHU216PEETBRO,2013-03-15 19:02:00,
2013-03-15 14:07:00,82.1,0.0,0.00,SSW,213,10.1,14.4,0,0.00,,,0.00,WUHU216PEETBRO,2013-03-15 19:07:00,
2013-03-15 14:12:00,82.8,0.0,0.00,SW,227,14.7,14.7,0,0.00,,,0.00,WUHU216PEETBRO,2013-03-15 19:12:00,
2013-03-15 14:17:00,80.2,0.0,0.00,SW,227,8.6,15.8,0,0.00,,,0.00,WUHU216PEETBRO,2013-03-15 19:17:00,
2013-03-15 14:22:00,80.4,0.0,0.00,SW,224,3.9,15.8,0,0.00,,,0.00,WUHU216PEETBRO,2013-03-15 19:22:00,
2013-03-15 14:27:00,80.4,0.0,0.00,West,269,7.6,13.9,0,0.00,,,0.00,WUHU216PEETBRO,2013-03-15 19:27:00,
2013-03-15 14:32:00,81.0,0.0,0.00,SE,124,7.0,12.4,0,0.00,,,0.00,WUHU216PEETBRO,2013-03-15 19:32:00,
2013-03-15 14:37:00,81.5,0.0,0.00,SW,215,10.4,12.6,0,0.00,,,0.00,WUHU216PEETBRO,2013-03-15 19:37:00,
2013-03-15 14:42:00,82.3,0.0,0.00,SSW,196,3.1,12.6,0,0.00,,,0.00,WUHU216PEETBRO,2013-03-15 19:42:00,
2013-03-15 14:47:00,86.1,0.0,0.00,SW,232,4.9,11.9,0,0.00,,,0.00,WUHU216PEETBRO,2013-03-15 19:47:00,
2013-03-15 14:52:00,82.4,0.0,0.00,East,101,8.0,13.9,0,0.00,,,0.00,WUHU216PEETBRO,2013-03-15 19:52:00,
2013-03-15 14:57:00,82.4,0.0,0.00,WSW,256,8.9,14.7,0,0.00,,,0.00,WUHU216PEETBRO,2013-03-15 19:57:00,
2013-03-15 15:02:00,85.7,0.0,0.00,WSW,242,8.5,14.7,0,0.00,,,0.00,WUHU216PEETBRO,2013-03-15 20:02:00,
2013-03-15 15:07:00,84.6,0.0,0.00,SW,221,4.0,14.0,0,0.00,,,0.00,WUHU216PEETBRO,2013-03-15 20:07:00,
2013-03-15 15:12:00,88.1,0.0,0.00,WSW,244,3.9,11.2,0,0.00,,,0.00,WUHU216PEETBRO,2013-03-15 20:12:00,
2013-03-15 15:17:00,85.7,0.0,0.00,West,269,5.7,15.7,0,0.00,,,0.00,WUHU216PEETBRO,2013-03-15 20:17:00,
2013-03-15 15:22:00,83.2,0.0,0.00,SSW,208,11.8,15.7,0,0.00,,,0.00,WUHU216PEETBRO,2013-03-15 20:22:00,
2013-03-15 15:27:00,87.7,0.0,0.00,WSW,242,7.7,15.5,0,0.00,,,0.00,WUHU216PEETBRO,2013-03-15 20:27:00,
2013-03-15 15:32:00,83.5,0.0,0.00,SSW,207,5.2,16.0,0,0.00,,,0.00,WUHU216PEETBRO,2013-03-15 20:32:00,
2013-03-15 15:37:00,86.1,0.0,0.00,WSW,242,3.0,16.0,0,0.00,,,0.00,WUHU216PEETBRO,2013-03-15 20:37:00,
2013-03-15 15:42:00,85.8,0.0,0.00,SSW,206,8.2,11.3,0,0.00,,,0.00,WUHU216PEETBRO,2013-03-15 20:42:00,
2013-03-15 15:47:00,82.8,0.0,0.00,WSW,258,6.4,15.2,0,0.00,,,0.00,WUHU216PEETBRO,2013-03-15 20:47:00,
2013-03-15 15:52:00,85.3,0.0,0.00,SSE,158,8.9,15.2,0,0.00,,,0.00,WUHU216PEETBRO,2013-03-15 20:52:00,
2013-03-15 15:57:00,86.1,0.0,0.00,West,275,4.6,15.8,0,0.00,,,0.00,WUHU216PEETBRO,2013-03-15 20:57:00,
2013-03-15 16:02:00,85.0,0.0,0.00,WSW,241,6.4,15.8,0,0.00,,,0.00,WUHU216PEETBRO,2013-03-15 21:02:00,
2013-03-15 16:07:00,83.5,0.0,0.00,South,184,7.2,15.0,0,0.00,,,0.00,WUHU216PEETBRO,2013-03-15 21:07:00,
2013-03-15 16:12:00,83.5,0.0,0.00,SE,145,3.0,15.0,0,0.00,,,0.00,WUHU216PEETBRO,2013-03-15 21:12:00,
2013-03-15 16:17:00,83.5,0.0,0.00,SW,235,8.3,13.1,0,0.00,,,0.00,WUHU216PEETBRO,2013-03-15 21:17:00,
2013-03-15 16:22:00,86.6,0.0,0.00,West,268,2.7,13.1,0,0.00,,,0.00,WUHU216PEETBRO,2013-03-15 21:22:00,
2013-03-15 16:27:00,85.0,0.0,0.00,SW,232,2.6,12.4,0,0.00,,,0.00,WUHU216PEETBRO,2013-03-15 21:27:00,
2013-03-15 16:32:00,85.0,0.0,0.00,WNW,293,5.0,12.4,0,0.00,,,0.00,WUHU216PEETBRO,2013-03-15 21:32:00,
2013-03-15 16:37:00,82.4,0.0,0.00,WSW,258,7.0,12.1,0,0.00,,,0.00,WUHU216PEETBRO,2013-03-15 21:37:00,
2013-03-15 16:42:00,82.8,0.0,0.00,SSW,206,6.0,14.9,0,0.00,,,0.00,WUHU216PEETBRO,2013-03-15 21:42:00,
2013-03-15 16:47:00,82.4,0.0,0.00,SW,223,5.8,14.9,0,0.00,,,0.00,WUHU216PEETBRO,2013-03-15 21:47:00,
2013-03-15 16:52:00,83.5,0.0,0.00,West,266,5.4,14.9,0,0.00,,,0.00,WUHU216PEETBRO,2013-03-15 21:52:00,
2013-03-15 16:57:00,81.7,0.0,0.00,WSW,244,10.7,13.4,0,0.00,,,0.00,WUHU216PEETBRO,2013-03-15 21:57:00,
2013-03-15 17:02:00,80.5,0.0,0.00,West,278,6.3,16.4,0,0.00,,,0.00,WUHU216PEETBRO,2013-03-15 22:02:00,
2013-03-15 17:07:00,81.7,0.0,0.00,South,176,6.3,16.4,0,0.00,,,0.00,WUHU216PEETBRO,2013-03-15 22:07:00,
2013-03-15 17:12:00,79.9,0.0,0.00,WNW,292,6.4,15.3,0,0.00,,,0.00,WUHU216PEETBRO,2013-03-15 22:12:00,
2013-03-15 17:17:00,80.5,0.0,0.00,WSW,245,4.7,15.2,0,0.00,,,0.00,WUHU216PEETBRO,2013-03-15 22:17:00,
2013-03-15 17:22:00,81.5,0.0,0.00,West,262,5.8,12.4,0,0.00,,,0.00,WUHU216PEETBRO,2013-03-15 22:22:00,
2013-03-15 17:27:00,81.5,0.0,0.00,WSW,248,6.5,12.4,0,0.00,,,0.00,WUHU216PEETBRO,2013-03-15 22:27:00,
2013-03-15 17:32:00,79.1,0.0,0.00,SW,234,7.1,12.6,0,0.00,,,0.00,WUHU216PEETBRO,2013-03-15 22:32:00,
2013-03-15 17:37:00,80.0,0.0,0.00,SSW,203,8.6,13.7,0,0.00,,,0.00,WUHU216PEETBRO,2013-03-15 22:37:00,
2013-03-15 17:42:00,81.1,0.0,0.00,WNW,282,3.9,13.7,0,0.00,,,0.00,WUHU216PEETBRO,2013-03-15 22:42:00,
2013-03-15 17:47:00,79.4,0.0,0.00,SW,232,8.3,13.9,0,0.00,,,0.00,WUHU216PEETBRO,2013-03-15 22:47:00,
2013-03-15 17:52:00,77.9,0.0,0.00,WSW,254,5.8,13.9,0,0.00,,,0.00,WUHU216PEETBRO,2013-03-15 22:52:00,
2013-03-15 17:57:00,80.2,0.0,0.00,WSW,249,4.5,11.4,0,0.00,,,0.00,WUHU216PEETBRO,2013-03-15 22:57:00,
2013-03-15 18:02:00,78.1,0.0,0.00,West,273,6.7,13.5,0,0.00,,,0.00,WUHU216PEETBRO,2013-03-15 23:02:00,
2013-03-15 18:07:00,76.8,0.0,0.00,WSW,249,6.0,15.1,0,0.00,,,0.00,WUHU216PEETBRO,2013-03-15 23:07:00,
2013-03-15 18:12:00,76.2,0.0,0.00,SSW,211,3.7,15.1,0,0.00,,,0.00,WUHU216PEETBRO,2013-03-15 23:12:00,
2013-03-15 18:17:00,76.2,0.0,0.00,SW,218,6.0,12.1,0,0.00,,,0.00,WUHU216PEETBRO,2013-03-15 23:17:00,
2013-03-15 18:22:00,75.2,0.0,0.00,SW,235,6.2,14.6,0,0.00,,,0.00,WUHU216PEETBRO,2013-03-15 23:22:00,
2013-03-15 18:27:00,74.9,0.0,0.00,SSW,196,5.4,14.6,0,0.00,,,0.00,WUHU216PEETBRO,2013-03-15 23:27:00,
2013-03-15 18:32:00,74.3,0.0,0.00,SSE,152,8.1,10.5,0,0.00,,,0.00,WUHU216PEETBRO,2013-03-15 23:32:00,
2013-03-15 18:37:00,73.3,0.0,0.00,WSW,248,7.0,11.9,0,0.00,,,0.00,WUHU216PEETBRO,2013-03-15 23:37:00,
2013-03-15 18:42:00,73.3,0.0,0.00,SW,232,4.2,11.9,0,0.00,,,0.00,WUHU216PEETBRO,2013-03-15 23:42:00,
2013-03-15 18:47:00,72.3,0.0,0.00,West,262,8.1,12.7,0,0.00,,,0.00,WUHU216PEETBRO,2013-03-15 23:47:00,
2013-03-15 18:52:00,71.1,0.0,0.00,SSW,203,6.7,13.5,0,0.00,,,0.00,WUHU216PEETBRO,2013-03-15 23:52:00,
2013-03-15 18:57:00,70.5,0.0,0.00,SW,224,6.1,13.5,0,0.00,,,0.00,WUHU216PEETBRO,2013-03-15 23:57:00,
2013-03-15 19:02:00,70.3,0.0,0.00,SSW,211,6.2,12.6,0,0.00,,,0.00,WUHU216PEETBRO,2013-03-16 00:02:00,
2013-03-15 19:07:00,69.6,0.0,0.00,South,184,4.4,11.2,0,0.00,,,0.00,WUHU216PEETBRO,2013-03-16 00:07:00,
2013-03-15 19:12:00,69.4,0.0,0.00,SW,224,8.1,11.2,0,0.00,,,0.00,WUHU216PEETBRO,2013-03-16 00:12:00,
2013-03-15 19:17:00,68.5,0.0,0.00,WNW,297,5.0,11.7,0,0.00,,,0.00,WUHU216PEETBRO,2013-03-16 00:17:00,
2013-03-15 19:22:00,67.9,0.0,0.00,SSW,211,6.5,11.7,0,0.00,,,0.00,WUHU216PEETBRO,2013-03-16 00:22:00,
2013-03-15 19:27:00,67.9,0.0,0.00,SSW,204,7.2,11.2,0,0.00,,,0.00,WUHU216PEETBRO,2013-03-16 00:27:00,
2013-03-15 19:32:00,67.7,0.0,0.00,WSW,241,7.5,11.4,0,0.00,,,0.00,WUHU216PEETBRO,2013-03-16 00:32:00,
2013-03-15 19:37:00,67.7,0.0,0.00,SW,225,8.3,11.4,0,0.00,,,0.00,WUHU216PEETBRO,2013-03-16 00:37:00,
2013-03-15 19:42:00,67.7,0.0,0.00,SW,224,5.2,10.4,0,0.00,,,0.00,WUHU216PEETBRO,2013-03-16 00:42:00,
2013-03-15 19:47:00,67.7,0.0,0.00,SW,230,6.2,11.9,0,0.00,,,0.00,WUHU216PEETBRO,2013-03-16 00:47:00,
2013-03-15 19:52:00,66.8,0.0,0.00,WNW,287,5.4,12.4,0,0.00,,,0.00,WUHU216PEETBRO,2013-03-16 00:52:00,
2013-03-15 19:57:00,66.4,0.0,0.00,SSW,204,6.7,12.4,0,0.00,,,0.00,WUHU216PEETBRO,2013-03-16 00:57:00,
2013-03-15 20:02:00,66.4,0.0,0.00,WSW,241,7.8,11.7,0,0.00,,,0.00,WUHU216PEETBRO,2013-03-16 01:02:00,
2013-03-15 20:07:00,66.1,0.0,0.00,WSW,247,11.2,11.7,0,0.00,,,0.00,WUHU216PEETBRO,2013-03-16 01:07:00,
2013-03-15 20:12:00,65.9,0.0,0.00,WSW,255,5.9,11.7,0,0.00,,,0.00,WUHU216PEETBRO,2013-03-16 01:12:00,
2013-03-15 20:17:00,65.6,0.0,0.00,West,275,3.9,11.4,0,0.00,,,0.00,WUHU216PEETBRO,2013-03-16 01:17:00,
2013-03-15 20:22:00,64.7,0.0,0.00,SW,215,4.5,11.4,0,0.00,,,0.00,WUHU216PEETBRO,2013-03-16 01:22:00,
2013-03-15 20:27:00,65.3,0.0,0.00,WSW,239,5.9,13.2,0,0.00,,,0.00,WUHU216PEETBRO,2013-03-16 01:27:00,
2013-03-15 20:32:00,65.1,0.0,0.00,SW,225,6.4,13.2,0,0.00,,,0.00,WUHU216PEETBRO,2013-03-16 01:32:00,
2013-03-15 20:37:00,64.5,0.0,0.00,SW,224,7.5,10.6,0,0.00,,,0.00,WUHU216PEETBRO,2013-03-16 01:37:00,
2013-03-15 20:42:00,64.7,0.0,0.00,SSW,207,7.3,11.5,0,0.00,,,0.00,WUHU216PEETBRO,2013-03-16 01:42:00,
2013-03-15 20:47:00,64.7,0.0,0.00,West,262,2.9,11.7,0,0.00,,,0.00,WUHU216PEETBRO,2013-03-16 01:47:00,
2013-03-15 20:52:00,64.2,0.0,0.00,WSW,245,3.2,11.7,0,0.00,,,0.00,WUHU216PEETBRO,2013-03-16 01:52:00,
2013-03-15 20:57:00,64.2,0.0,0.00,WSW,245,4.8,12.9,0,0.00,,,0.00,WUHU216PEETBRO,2013-03-16 01:57:00,
2013-03-15 21:02:00,64.2,0.0,0.00,WSW,254,8.9,12.9,0,0.00,,,0.00,WUHU216PEETBRO,2013-03-16 02:02:00,
2013-03-15 21:07:00,63.8,0.0,0.00,WSW,256,8.8,12.8,0,0.00,,,0.00,WUHU216PEETBRO,2013-03-16 02:07:00,
2013-03-15 21:12:00,63.9,0.0,0.00,WSW,241,5.5,12.8,0,0.00,,,0.00,WUHU216PEETBRO,2013-03-16 02:12:00,
2013-03-15 21:17:00,64.2,0.0,0.00,WNW,286,3.0,12.4,0,0.00,,,0.00,WUHU216PEETBRO,2013-03-16 02:17:00,
2013-03-15 21:22:00,63.3,0.0,0.00,West,269,3.6,13.0,0,0.00,,,0.00,WUHU216PEETBRO,2013-03-16 02:22:00,
2013-03-15 21:27:00,63.3,0.0,0.00,WNW,293,4.2,13.0,0,0.00,,,0.00,WUHU216PEETBRO,2013-03-16 02:27:00,
2013-03-15 21:32:00,63.0,0.0,0.00,West,261,3.5,13.9,0,0.00,,,0.00,WUHU216PEETBRO,2013-03-16 02:32:00,
2013-03-15 21:37:00,63.0,0.0,0.00,WSW,252,5.9,13.9,0,0.00,,,0.00,WUHU216PEETBRO,2013-03-16 02:37:00,
2013-03-15 21:42:00,62.5,0.0,0.00,WSW,248,3.2,10.7,0,0.00,,,0.00,WUHU216PEETBRO,2013-03-16 02:42:00,
2013-03-15 21:47:00,62.5,0.0,0.00,WSW,249,2.5,9.7,0,0.00,,,0.00,WUHU216PEETBRO,2013-03-16 02:47:00,
2013-03-15 21:52:00,62.2,0.0,0.00,WSW,254,2.7,9.1,0,0.00,,,0.00,WUHU216PEETBRO,2013-03-16 02:52:00,
2013-03-15 21:57:00,62.5,0.0,0.00,West,275,4.1,9.5,0,0.00,,,0.00,WUHU216PEETBRO,2013-03-16 02:57:00,
2013-03-15 22:02:00,61.6,0.0,0.00,West,269,4.5,9.8,0,0.00,,,0.00,WUHU216PEETBRO,2013-03-16 03:02:00,
2013-03-15 22:07:00,61.6,0.0,0.00,West,268,2.0,10.4,0,0.00,,,0.00,WUHU216PEETBRO,2013-03-16 03:07:00,
2013-03-15 22:12:00,61.9,0.0,0.00,WSW,238,6.4,10.6,0,0.00,,,0.00,WUHU216PEETBRO,2013-03-16 03:12:00,
2013-03-15 22:17:00,61.6,0.0,0.00,WSW,258,3.0,10.6,0,0.00,,,0.00,WUHU216PEETBRO,2013-03-16 03:17:00,
2013-03-15 22:22:00,61.4,0.0,0.00,WSW,247,6.2,10.4,0,0.00,,,0.00,WUHU216PEETBRO,2013-03-16 03:22:00,
2013-03-15 22:27:00,62.0,0.0,0.00,WSW,249,8.1,9.7,0,0.00,,,0.00,WUHU216PEETBRO,2013-03-16 03:27:00,
2013-03-15 22:32:00,61.4,0.0,0.00,SW,232,5.3,10.0,0,0.00,,,0.00,WUHU216PEETBRO,2013-03-16 03:32:00,
2013-03-15 22:37:00,60.8,0.0,0.00,WSW,256,4.1,10.0,0,0.00,,,0.00,WUHU216PEETBRO,2013-03-16 03:37:00,
2013-03-15 22:42:00,60.8,0.0,0.00,West,276,4.7,10.5,0,0.00,,,0.00,WUHU216PEETBRO,2013-03-16 03:42:00,
2013-03-15 22:47:00,60.8,0.0,0.00,SW,228,3.5,10.5,0,0.00,,,0.00,WUHU216PEETBRO,2013-03-16 03:47:00,
2013-03-15 22:52:00,60.5,0.0,0.00,West,271,5.8,11.2,0,0.00,,,0.00,WUHU216PEETBRO,2013-03-16 03:52:00,
2013-03-15 22:57:00,60.9,0.0,0.00,WSW,247,5.2,12.9,0,0.00,,,0.00,WUHU216PEETBRO,2013-03-16 03:57:00,
2013-03-15 23:00:00,60.5,0.0,0.00,WSW,247,5.9,12.9,0,0.00,,,0.00,WUHU216PEETBRO,2013-03-16 04:00:00,
2013-03-15 23:05:00,60.6,0.0,0.00,WSW,242,3.4,10.0,0,0.00,,,0.00,WUHU216PEETBRO,2013-03-16 04:05:00,
2013-03-15 23:06:00,60.8,0.0,0.00,West,278,5.8,11.4,0,0.00,,,0.00,WUHU216PEETBRO,2013-03-16 04:06:00,
2013-03-15 23:11:00,60.3,0.0,0.00,WSW,247,3.3,11.4,0,0.00,,,0.00,WUHU216PEETBRO,2013-03-16 04:11:00,
2013-03-15 23:16:00,60.4,0.0,0.00,WNW,299,5.1,8.9,0,0.00,,,0.00,WUHU216PEETBRO,2013-03-16 04:16:00,
2013-03-15 23:21:00,60.4,0.0,0.00,WSW,252,7.4,10.3,0,0.00,,,0.00,WUHU216PEETBRO,2013-03-16 04:21:00,
2013-03-15 23:26:00,60.2,0.0,0.00,WSW,248,4.2,10.3,0,0.00,,,0.00,WUHU216PEETBRO,2013-03-16 04:26:00,
2013-03-15 23:31:00,60.9,0.0,0.00,West,273,3.5,9.8,0,0.00,,,0.00,WUHU216PEETBRO,2013-03-16 04:31:00,
2013-03-15 23:36:00,60.2,0.0,0.00,WSW,252,5.1,9.4,0,0.00,,,0.00,WUHU216PEETBRO,2013-03-16 04:36:00,
2013-03-15 23:41:00,60.6,0.0,0.00,WSW,245,3.9,8.9,0,0.00,,,0.00,WUHU216PEETBRO,2013-03-16 04:41:00,
2013-03-15 23:46:00,59.6,0.0,0.00,SW,220,4.7,8.9,0,0.00,,,0.00,WUHU216PEETBRO,2013-03-16 04:46:00,
2013-03-15 23:52:00,60.3,0.0,0.00,SW,230,5.2,9.5,0,0.00,,,0.00,WUHU216PEETBRO,2013-03-16 04:52:00,
2013-03-15 23:57:00,60.3,0.0,0.00,WNW,289,5.0,10.6,0,0.00,,,0.00,WUHU216PEETBRO,2013-03-16 04:57:00,